OPS 4682 DEB, 11631

Orbit data source: Space-Track

OPS 4682 DEB, 11631 is space debris in LEO originally from a launch on Sat, 03 Apr 1965 UTC launched from the Air Force Western Test Range (AFWTR). Debris objects in space refer to the collection of defunct objects orbiting the Earth. Examples of debris include non-operational satellites, rocket bodies, and fragments generated from explosions, collisions, or faulty payload assembly.

Loading next visibility...
Identifier
11631, 1965-027F
Orbit
LEO
Country
Flag of USUS
Related business
Manufacturer
Unknown
Mission
Spacecraft
Bus & Motor
Unknown
Mass
Unknown
Launch date (UTC)
1965-04-03 (61 years ago)
Launch vehicle
Unknown
Launch site
Air Force Western Test Range (AFWTR)
Object type
Payload
Rocket body
Debris
Shape & HBR
Unknown shape, 0.1 m
Radar Cross Section
Small (<0.1 m²)

Expand to show TLE details & history
Last TLE update: 16 hours ago

TLE from 16 hours ago
0 OPS 4682 DEB
1 11631U 65027F   25293.16757130  .00000058  00000-0  17641-3 0  9998
2 11631  90.2428   0.7299 0039996 347.5402  40.3757 12.96663405 94671
Epoch: 2025-10-20T04:01Z
TLE epoch observation values (Epoch: 2025-10-20T04:01:18.160Z)
Latitude
28.25302°
Longitude
-88.59936°
Altitude
1,255.395 km
Speed
7.241 km/s
True Right ascension
00h 02m 24s
True Declination
28° 07' 09"
Sunlit
Object was in full shadow at epoch
Visualization orbit readout
Latitude
Unknown
Longitude
Unknown
Altitude
Unknown
Speed
Unknown
Apparent Right ascension
Unknown
Apparent Declination
Unknown
Sunlit
N/A
Visualization observer readout
Local Sidereal Time
14:47:29
Azimuth
Unknown
Elevation
Unknown
Doppler factor
Unknown
Orbital elements
Apogee altitude
1,302.918 km
Perigee altitude
1,241.721 km
Semi-major axis
7,650.457 km
Eccentricity
0.004
Inclination
90.2428°
RAAN
0.7299°
Arg. of periapsis
347.5402°
True anomaly
40.67373°
Mean anomaly
40.3757°
Eccentric anomaly
40.5246°
Mean motion
3.24349 °/min
Orbital period
110.99 mins
BSTAR
0.00017641
Loading maneuver chart data...
Computing Atmospheric mass density...
Loading historical data...
Loading historical data...
Loading historical data...
Loading historical data...
Loading historical data...
Loading historical data...
Loading historical data...

Documentation

Showing up to 5 results
|